Skip Page Navigation
NASA JPL Caltech
NASA Logo - Jet Propulsion Laboratory + View the NASA Portal
+ Center for Near-Earth Object Studies
JPL Home Earth Solar System Stars & Galaxies Technology
JPL Solar System Dynamics
BODIES ORBITS EPHEMERIDES TOOLS PHYSICAL DATA DISCOVERY FAQ SITE MAP
JPL Small-Body Database Browser
Search: [ help ]  
183270 (2002 TC241)
Classification: Main-belt Asteroid          SPK-ID: 2183270
Ephemeris | Orbit Diagram | Orbital Elements | Mission Design | Physical Parameters | Discovery Circumstances | Close-Approach Data ]

[ show orbit diagram ]
Orbital Elements at Epoch 2459000.5 (2020-May-31.0) TDB
Reference: JPL 20 (heliocentric ecliptic J2000)
 Element Value Uncertainty (1-sigma)   Units 
e .1344633923140938 4.4608e-08  
a 2.395804125985437 1.2473e-08 au
q 2.073656175885332 1.0633e-07 au
i 2.725132359416994 5.808e-06 deg
node 59.50151787605327 9.4275e-05 deg
peri 27.53787417659224 9.7466e-05 deg
M 223.3891457926354 2.2684e-05 deg
tp 2459514.494054924121
(2021-Oct-26.99405492)
8.5672e-05 TDB
period 1354.488710624785
3.71
1.0577e-05
2.896e-08
d
yr
n .2657829461228532 2.0755e-09 deg/d
Q 2.717952076085541 1.415e-08 au
  Orbit Determination Parameters
   # obs. used (total)      478  
   data-arc span      10065 days (27.56 yr)  
   first obs. used      1991-11-06  
   last obs. used      2019-05-28  
   planetary ephem.      DE431  
   SB-pert. ephem.      SB431-N16  
   condition code      0  
   norm. resid. RMS      .53007  
   source      ORB  
   producer      Otto Matic  
   solution date      2020-Feb-24 19:33:24  

Additional Information
 Earth MOID = 1.09041 au 
 Jupiter MOID = 2.46881 au 
 T_jup = 3.515 
[ show covariance matrix ]

Ephemeris | Orbit Diagram | Orbital Elements | Mission Design | Physical Parameters | Discovery Circumstances | Close-Approach Data ]

Physical Parameter Table
Parameter Symbol Value Units Sigma Reference Notes
absolute magnitude H 16.3   n/a MPO475545  

183270 (2002 TC241)          Discovered 2002-Oct-07 by LINEAR at Socorro
Reference: 20080420/Numbers.arcLast Updated: 2008-04-23

[ show close-approach data ]
Alternate Designations
 2002 TC241 = 2002 TN241 
Ephemeris | Orbit Diagram | Orbital Elements | Mission Design | Physical Parameters | Discovery Circumstances | Close-Approach Data ]
ABOUT SSD CREDITS/AWARDS PRIVACY/COPYRIGHT GLOSSARY LINKS
FirstGov 2020-Jul-09 07:50 UT
(server date/time)  
NASA Home Page
Site Manager:   Ryan S. Park
Webmaster  Alan B. Chamberlin